Home > Weather > Brăila > Past weeks

Flag for Romania Past Weather in Brăila, Romania — Yesterday and Last 2 Weeks

Now
89 °F

Passing clouds.


Feels Like: 87 °F
Forecast: 72 / 91 °F
Wind: No wind

Location: Galati

Current Time: Jul 25, 2016 at 8:52:58 PM

Latest Report: Jul 25, 2016 at 8:00 PM


Visibility: 13 mi

Pressure: 29.93 "Hg

Humidity: 32%

Dew Point: 56 °F

Location of BrăilaLocation

Past Weather in Brăila — Graph

°F

Brăila Temperature Yesterday

Maximum temperature yesterday: 88 °F (at 3:00 PM)
Minimum temperature yesterday: 69 °F (at 5:00 AM)
Average temperature yesterday: 79 °F

High & Low Weather Summary for the Past Weeks

 TemperatureHumidityPressure
High92 °F (Jul 14, 5:00 PM)98% (Jul 14, 8:00 AM)30.09 "Hg (Jul 14, 8:00 AM)
Low60 °F (Jul 22, 6:00 AM)18% (Jul 22, 5:00 PM)29.72 "Hg (Jul 17, 7:00 PM)
Average76 °F55%29.93 "Hg
* Reported Jul 10 7:00 PM — Jul 25 7:00 PM, Brăila, Weather by CustomWeather, © 2016

Note: Actual official high and low records may vary slightly from our data, if they occured in-between our weather recording intervals... More about our weather records

Advertising

Brăila Weather History for the Previous 24 Hours

Scroll right to see more
 ConditionsComfort  
Time TempWeatherWind HumidityBarometerVisibility
7:00 PM
Mon, Jul 25
91 °FPassing clouds.1 mph30%29.93 "Hg12 mi
6:00 PM91 °FScattered clouds.2 mph29%29.94 "Hg12 mi
5:00 PM92 °FScattered clouds.2 mph29%29.95 "Hg12 mi
4:00 PM90 °FPassing clouds.2 mph30%29.96 "Hg12 mi
3:00 PM90 °FPassing clouds.2 mph32%29.97 "Hg12 mi
2:00 PM88 °FPassing clouds.2 mph35%29.98 "Hg12 mi
1:00 PM87 °FPassing clouds.2 mph35%29.98 "Hg12 mi
12:00 PM85 °FPassing clouds.2 mph39%29.99 "Hg12 mi
11:00 AM83 °FSunny.2 mph42%30.00 "Hg12 mi
10:00 AM78 °FSunny.3 mph55%30.01 "Hg12 mi
9:00 AM73 °FSunny.3 mph62%30.01 "Hg12 mi
8:00 AM70 °FSunny.3 mph70%30.01 "Hg12 mi
7:00 AM69 °FSunny.3 mph71%30.01 "Hg12 mi
6:00 AM69 °FSunny.3 mph70%30.00 "Hg12 mi
5:00 AM70 °FClear.3 mph69%30.01 "Hg12 mi
4:00 AM71 °FClear.2 mph65%30.00 "Hg12 mi
3:00 AM73 °FClear.2 mph63%30.00 "Hg12 mi
2:00 AM75 °FClear.2 mph55%30.00 "Hg12 mi
1:00 AM76 °FClear.1 mph53%30.00 "Hg12 mi
12:00 AM78 °FClear.2 mph50%30.00 "Hg12 mi
11:00 PM
Sun, Jul 24
79 °FClear.2 mph48%29.99 "Hg12 mi
10:00 PM79 °FClear.2 mph48%29.98 "Hg12 mi
9:00 PM82 °FClear.1 mph45%29.97 "Hg12 mi
8:00 PM85 °FPassing clouds.1 mph44%29.96 "Hg12 mi
Weather by CustomWeather, © 2016

See weather overviewHow to use our weather pages